TimeEDT,TemperatureF,Dew PointF,Humidity,Sea Level PressureIn,VisibilityMPH,Wind Direction,Wind SpeedMPH,Gust SpeedMPH,PrecipitationIn,Events,Conditions,WindDirDegrees,DateUTC
12:56 AM,72.0,69.1,91,29.74,9.0,East,3.5,-,0.06,,Overcast,100,2013-07-23 04:56:00
1:56 AM,72.0,70.0,93,29.73,8.0,North,3.5,-,N/A,,Overcast,350,2013-07-23 05:56:00
2:37 AM,71.6,69.8,94,29.72,5.0,NE,3.5,-,N/A,,Overcast,50,2013-07-23 06:37:00
2:56 AM,72.0,70.0,93,29.72,5.0,Calm,Calm,-,N/A,,Overcast,0,2013-07-23 06:56:00
3:21 AM,71.6,69.8,94,29.72,5.0,Calm,Calm,-,N/A,,Overcast,0,2013-07-23 07:21:00
3:56 AM,72.0,70.0,93,29.70,5.0,Calm,Calm,-,N/A,,Overcast,0,2013-07-23 07:56:00
4:56 AM,72.0,70.0,93,29.70,3.0,Calm,Calm,-,N/A,,Overcast,0,2013-07-23 08:56:00
5:33 AM,73.4,69.8,88,29.71,7.0,West,4.6,-,N/A,,Overcast,270,2013-07-23 09:33:00
5:56 AM,72.0,69.1,91,29.70,7.0,WNW,4.6,-,N/A,,Overcast,290,2013-07-23 09:56:00
6:03 AM,71.6,69.8,94,29.70,10.0,WNW,4.6,-,N/A,,Overcast,300,2013-07-23 10:03:00
6:56 AM,73.0,70.0,90,29.70,8.0,WNW,5.8,-,N/A,,Overcast,290,2013-07-23 10:56:00
7:25 AM,73.4,69.8,88,29.70,6.0,West,4.6,-,N/A,,Overcast,260,2013-07-23 11:25:00
7:56 AM,73.9,70.0,87,29.70,6.0,WNW,4.6,-,N/A,,Overcast,290,2013-07-23 11:56:00
8:56 AM,75.0,71.1,87,29.70,7.0,NW,9.2,-,N/A,,Overcast,310,2013-07-23 12:56:00
9:15 AM,75.2,71.6,89,29.70,8.0,WNW,6.9,-,N/A,,Overcast,290,2013-07-23 13:15:00
9:56 AM,77.0,70.0,79,29.69,10.0,West,8.1,-,N/A,,Overcast,280,2013-07-23 13:56:00
10:56 AM,79.0,69.1,72,29.68,10.0,WNW,9.2,-,N/A,,Mostly Cloudy,300,2013-07-23 14:56:00
11:56 AM,82.0,69.1,65,29.67,10.0,West,8.1,-,N/A,,Mostly Cloudy,280,2013-07-23 15:56:00
12:56 PM,81.0,68.0,65,29.67,10.0,West,11.5,-,N/A,,Mostly Cloudy,280,2013-07-23 16:56:00
1:56 PM,82.0,66.9,60,29.65,10.0,NW,13.8,-,N/A,,Mostly Cloudy,310,2013-07-23 17:56:00
2:56 PM,84.9,68.0,57,29.65,10.0,WNW,15.0,18.4,N/A,,Mostly Cloudy,290,2013-07-23 18:56:00
3:56 PM,84.9,66.0,53,29.64,10.0,WNW,15.0,-,N/A,,Scattered Clouds,300,2013-07-23 19:56:00
4:56 PM,84.9,63.0,48,29.64,10.0,NW,13.8,-,N/A,,Scattered Clouds,320,2013-07-23 20:56:00
5:56 PM,84.9,64.0,49,29.63,10.0,NW,10.4,-,N/A,,Partly Cloudy,310,2013-07-23 21:56:00
6:56 PM,84.0,64.9,53,29.62,10.0,NW,9.2,-,N/A,,Partly Cloudy,310,2013-07-23 22:56:00
7:56 PM,82.0,64.9,56,29.64,10.0,West,8.1,-,N/A,,Scattered Clouds,260,2013-07-23 23:56:00
8:56 PM,79.0,64.9,62,29.65,10.0,Calm,Calm,-,N/A,,Scattered Clouds,0,2013-07-24 00:56:00
9:56 PM,77.0,66.0,69,29.66,10.0,NW,6.9,-,N/A,,Mostly Cloudy,310,2013-07-24 01:56:00
10:56 PM,78.1,64.0,62,29.66,9.0,NW,5.8,-,N/A,,Mostly Cloudy,320,2013-07-24 02:56:00
11:56 PM,75.9,64.9,69,29.68,9.0,NNW,4.6,-,N/A,,Scattered Clouds,330,2013-07-24 03:56:00